Frankfort, MI

3:21 AM EST on February 25, 2017 (GMT -0500)
Frankfort

Weather History for KFKS - December, 2013

Change the Weather History Date:

Thursday, December 5, 2013

  Actual Average (KMBL) Record (KMBL)
Temperature  
Mean Temperature 34 °F -  
Max Temperature 48 °F 36 °F 64 °F (2001)
Min Temperature 20 °F 24 °F 8 °F (1958)
Degree Days  
Heating Degree Days 30    
Moisture  
Dew Point 24 °F    
Average Humidity 74    
Maximum Humidity 92    
Minimum Humidity 66    
Precipitation  
Precipitation 0.00 in - - ()
Sea Level Pressure  
Sea Level Pressure 29.81 in    
Wind  
Wind Speed 16 mph (WSW)    
Max Wind Speed 21 mph    
Max Gust Speed 33 mph    
Visibility 10 miles    
Events      
Averages and records for this station are not official NWS values.
T = Trace of Precipitation, MM = Missing Value Source: NWS Daily Summary

Daily Weather History Graph

Daily Weather History Graph

Search for Another Location

Airport or City:

Trip Planner

Search our weather history database for the weather conditions in past years. The results will help you decide how hot, cold, wet, or windy it might be!

Date:

Astronomy

Dec. 05, 2013 Rise Set
Actual Time 8:06 AM EST 5:04 PM EST
Civil Twilight 7:33 AM EST 5:37 PM EST
Nautical Twilight 6:56 AM EST 6:14 PM EST
Astronomical Twilight 6:21 AM EST 6:49 PM EST
Moon 10:22 AM EST (12/5) 8:28 PM EST (12/5)
Length of Visible Light 10h 04m
Length of Day
8h 58m
Waxing Crescent, 10% of the Moon is Illuminated
Dec 5
Waxing Crescent
Dec 9
First Quarter
Dec 17
Full
Dec 25
Last Quarter
Jan 1
New

Hourly Weather History & Observations

Time (EST) Temp. Windchill Dew Point Humidity Pressure Visibility Wind Dir Wind Speed Gust Speed Precip Events Conditions
12:13 AM 48.2 °F - 45.9 °F 92% 29.43 in 5.0 mi South 15.0 mph 25.3 mph N/A   Overcast
12:34 AM 48.4 °F - 45.7 °F 90% 29.43 in 5.0 mi SSW 15.0 mph 26.5 mph N/A   Overcast
12:55 AM 48.6 °F - 45.9 °F 90% 29.43 in 5.0 mi SSW 17.3 mph 27.6 mph N/A   Overcast
1:15 AM 48.2 °F - 45.0 °F 89% 29.44 in 5.0 mi SSW 16.1 mph 27.6 mph N/A   Overcast
1:35 AM 47.3 °F - 43.9 °F 88% 29.47 in 7.0 mi SW 16.1 mph 23.0 mph N/A   Mostly Cloudy
1:50 AM 46.4 °F 40.4 °F 42.3 °F 85% 29.48 in 10.0 mi SW 13.8 mph 28.8 mph N/A   Overcast
2:11 AM 44.6 °F 37.2 °F 40.6 °F 86% 29.49 in 10.0 mi WSW 17.3 mph 26.5 mph N/A   Overcast
2:32 AM 43.7 °F 37.3 °F 40.1 °F 87% 29.51 in 10.0 mi WSW 12.7 mph 25.3 mph N/A   Overcast
2:52 AM 42.3 °F 33.8 °F 37.9 °F 85% 29.51 in 10.0 mi West 18.4 mph 28.8 mph N/A   Overcast
3:12 AM 41.7 °F 32.9 °F 37.4 °F 85% 29.54 in 10.0 mi West 19.6 mph 27.6 mph N/A   Overcast
3:32 AM 40.3 °F 32.6 °F 36.5 °F 86% 29.55 in 10.0 mi WSW 13.8 mph 25.3 mph N/A   Overcast
3:52 AM 39.6 °F 31.0 °F 34.2 °F 81% 29.56 in 10.0 mi WSW 16.1 mph 27.6 mph N/A   Overcast
4:12 AM 39.2 °F 29.8 °F 33.3 °F 79% 29.56 in 10.0 mi WSW 18.4 mph 28.8 mph N/A   Overcast
4:32 AM 38.7 °F 29.8 °F 32.9 °F 80% 29.56 in 10.0 mi WSW 16.1 mph 26.5 mph N/A   Overcast
4:52 AM 37.9 °F 29.2 °F 32.9 °F 82% 29.56 in 10.0 mi SW 15.0 mph 20.7 mph N/A   Overcast
5:13 AM 37.2 °F 28.7 °F 32.0 °F 81% 29.57 in 10.0 mi WSW 13.8 mph 24.2 mph N/A   Overcast
5:33 AM 36.5 °F 25.7 °F 30.4 °F 78% 29.60 in 10.0 mi West 20.7 mph 31.1 mph N/A   Overcast
5:53 AM 36.1 °F 25.9 °F 30.0 °F 78% 29.63 in 10.0 mi West 18.4 mph 31.1 mph N/A   Overcast
6:13 AM 36.1 °F 26.2 °F 29.8 °F 78% 29.63 in 10.0 mi WSW 17.3 mph 29.9 mph N/A   Overcast
6:33 AM 36.0 °F 28.5 °F 29.8 °F 78% 29.64 in 10.0 mi SW 10.4 mph 27.6 mph N/A   Overcast
6:53 AM 36.0 °F 27.1 °F 29.1 °F 76% 29.64 in 10.0 mi WSW 13.8 mph 20.7 mph N/A   Overcast
7:13 AM 35.8 °F 26.1 °F 28.8 °F 76% 29.66 in 10.0 mi SW 16.1 mph 25.3 mph N/A   Overcast
7:33 AM 35.2 °F 25.0 °F 27.9 °F 74% 29.66 in 10.0 mi SW 17.3 mph 29.9 mph N/A   Overcast
7:53 AM 34.7 °F 24.3 °F 27.5 °F 75% 29.68 in 10.0 mi WSW 17.3 mph 26.5 mph N/A   Overcast
8:13 AM 33.8 °F 22.5 °F 26.6 °F 75% 29.68 in 10.0 mi WSW 19.6 mph 31.1 mph N/A   Overcast
8:33 AM 33.1 °F 23.0 °F 26.6 °F 77% 29.70 in 10.0 mi WSW 15.0 mph 26.5 mph N/A   Overcast
8:54 AM 32.2 °F 21.4 °F 25.5 °F 76% 29.72 in 10.0 mi WSW 16.1 mph 23.0 mph N/A   Overcast
9:14 AM 32.0 °F 21.2 °F 25.5 °F 77% 29.73 in 10.0 mi WSW 16.1 mph 27.6 mph N/A   Overcast
9:34 AM 32.0 °F 22.1 °F 24.4 °F 74% 29.74 in 10.0 mi West 13.8 mph 24.2 mph N/A   Overcast
9:54 AM 31.5 °F 19.4 °F 24.8 °F 76% 29.75 in 10.0 mi West 19.6 mph 27.6 mph N/A   Overcast
10:14 AM 30.6 °F 18.2 °F 22.1 °F 71% 29.78 in 10.0 mi West 19.6 mph 29.9 mph N/A   Overcast
10:34 AM 29.8 °F 17.7 °F 21.4 °F 71% 29.79 in 10.0 mi West 18.4 mph 33.4 mph N/A   Mostly Cloudy
10:54 AM 28.6 °F 15.6 °F 20.1 °F 71% 29.81 in 10.0 mi West 19.6 mph 29.9 mph N/A   Mostly Cloudy
11:14 AM 28.4 °F 15.4 °F 19.8 °F 70% 29.82 in 10.0 mi WSW 19.6 mph 26.5 mph N/A   Mostly Cloudy
11:35 AM 27.9 °F 16.3 °F 19.8 °F 72% 29.83 in 10.0 mi West 15.0 mph 26.5 mph N/A   Overcast
11:55 AM 27.5 °F 16.3 °F 18.9 °F 70% 29.84 in 10.0 mi West 13.8 mph 31.1 mph N/A   Overcast
12:15 PM 27.9 °F 16.3 °F 19.8 °F 72% 29.84 in 10.0 mi West 15.0 mph 24.2 mph N/A   Overcast
12:35 PM 27.7 °F 17.1 °F 18.9 °F 69% 29.85 in 10.0 mi WSW 12.7 mph 21.9 mph N/A   Overcast
12:55 PM 28.4 °F 17.0 °F 18.9 °F 67% 29.85 in 10.0 mi WSW 15.0 mph 23.0 mph N/A   Mostly Cloudy
1:15 PM 28.8 °F 17.5 °F 20.1 °F 70% 29.85 in 10.0 mi WSW 15.0 mph 25.3 mph N/A   Mostly Cloudy
1:35 PM 27.5 °F 16.3 °F 19.2 °F 71% 29.87 in 10.0 mi WSW 13.8 mph 23.0 mph N/A   Mostly Cloudy
1:55 PM 28.0 °F 17.0 °F 18.9 °F 68% 29.87 in 10.0 mi West 13.8 mph 25.3 mph N/A   Mostly Cloudy
2:16 PM 28.2 °F 18.3 °F 19.4 °F 70% 29.88 in 10.0 mi WSW 11.5 mph 24.2 mph N/A   Mostly Cloudy
2:36 PM 27.5 °F 17.4 °F 18.0 °F 67% 29.89 in 10.0 mi WSW 11.5 mph 24.2 mph N/A   Mostly Cloudy
2:56 PM 27.1 °F 15.9 °F 18.5 °F 70% 29.89 in 10.0 mi West 13.8 mph 25.3 mph N/A   Mostly Cloudy
3:16 PM 26.8 °F 14.1 °F 17.4 °F 68% 29.91 in 10.0 mi WSW 17.3 mph 26.5 mph N/A   Mostly Cloudy
3:36 PM 26.6 °F 14.3 °F 18.1 °F 70% 29.92 in 10.0 mi WSW 16.1 mph 25.3 mph N/A   Overcast
3:56 PM 26.4 °F 13.6 °F 17.1 °F 68% 29.94 in 10.0 mi West 17.3 mph 27.6 mph N/A   Mostly Cloudy
4:16 PM 26.1 °F 14.0 °F 17.2 °F 69% 29.95 in 10.0 mi West 15.0 mph 23.0 mph N/A   Mostly Cloudy
4:36 PM 25.3 °F 12.2 °F 15.6 °F 67% 29.95 in 10.0 mi West 17.3 mph 25.3 mph N/A   Scattered Clouds
4:56 PM 25.2 °F 12.4 °F 16.2 °F 69% 29.96 in 10.0 mi West 16.1 mph 29.9 mph N/A   Scattered Clouds
5:11 PM 25.0 °F 11.7 °F 15.6 °F 68% 29.97 in 10.0 mi West 17.3 mph 26.5 mph N/A   Mostly Cloudy
5:31 PM 25.0 °F 13.1 °F 16.2 °F 69% 29.97 in 10.0 mi West 13.8 mph 23.0 mph N/A   Mostly Cloudy
5:51 PM 24.6 °F 14.4 °F 15.3 °F 68% 29.98 in 10.0 mi West 10.4 mph 20.7 mph N/A   Mostly Cloudy
6:12 PM 24.8 °F 12.4 °F 15.6 °F 68% 29.98 in 10.0 mi West 15.0 mph 21.9 mph N/A   Mostly Cloudy
6:32 PM 24.8 °F 13.4 °F 16.2 °F 70% 30.00 in 10.0 mi WSW 12.7 mph 18.4 mph N/A   Mostly Cloudy
6:52 PM 24.4 °F 12.4 °F 15.1 °F 68% 30.00 in 10.0 mi West 13.8 mph 24.2 mph N/A   Mostly Cloudy
7:12 PM 24.6 °F 10.1 °F 16.0 °F 70% 30.02 in 10.0 mi West 20.7 mph 25.3 mph N/A   Mostly Cloudy
7:32 PM 24.4 °F 11.5 °F 15.3 °F 68% 30.04 in 10.0 mi West 16.1 mph 24.2 mph N/A   Mostly Cloudy
7:52 PM 24.3 °F 14.6 °F 14.7 °F 67% 30.06 in 10.0 mi West 9.2 mph 24.2 mph N/A   Mostly Cloudy
8:12 PM 23.9 °F 11.7 °F 14.5 °F 67% 30.07 in 10.0 mi West 13.8 mph 29.9 mph N/A   Mostly Cloudy
8:33 PM 23.9 °F 9.5 °F 14.7 °F 68% 30.08 in 10.0 mi West 19.6 mph 25.3 mph N/A   Mostly Cloudy
8:53 PM 23.7 °F 11.0 °F 14.2 °F 67% 30.09 in 10.0 mi WNW 15.0 mph 23.0 mph N/A   Mostly Cloudy
9:13 PM 23.5 °F 9.9 °F 13.6 °F 66% 30.09 in 10.0 mi West 17.3 mph 25.3 mph N/A   Mostly Cloudy
9:33 PM 23.4 °F 10.1 °F 13.6 °F 66% 30.10 in 10.0 mi West 16.1 mph 28.8 mph N/A   Mostly Cloudy
9:53 PM 22.8 °F 8.5 °F 13.3 °F 67% 30.10 in 10.0 mi WNW 18.4 mph 26.5 mph N/A   Mostly Cloudy
10:13 PM 22.6 °F 8.3 °F 13.8 °F 69% 30.11 in 10.0 mi West 18.4 mph 25.3 mph N/A   Overcast
10:33 PM 22.1 °F 8.5 °F 13.1 °F 68% 30.12 in 10.0 mi WNW 16.1 mph 25.3 mph N/A   Mostly Cloudy
10:53 PM 21.6 °F 6.1 °F 12.7 °F 69% 30.13 in 10.0 mi WNW 20.7 mph 28.8 mph N/A   Mostly Cloudy
11:13 PM 21.6 °F 7.8 °F 12.9 °F 69% 30.13 in 10.0 mi WNW 16.1 mph 23.0 mph N/A   Mostly Cloudy
11:33 PM 21.2 °F 7.3 °F 13.6 °F 73% 30.13 in 10.0 mi WNW 16.1 mph 23.0 mph N/A   Overcast
11:54 PM 20.8 °F 9.0 °F 13.8 °F 74% 30.13 in 10.0 mi West 11.5 mph 20.7 mph N/A   Overcast